This demonstration page uses our WeatherBlox Daily Observations layout. Learn more.

Left ArrowRight Arrow

39.92423, -83.80882

Hourly Observations for November 28, 2016

Temp ( °F °C ) Dew Point ( °F °C ) Humidity (%) Winds ( mph kmh ) Pressure ( in mb ) Visibility ( mi km ) Precip ( " mm )
12:56 am 00:56 Clear 34 1.1 28 -2.2 79 79 SE 7 11 30.00 1016 10 16 0.00 0.00
1:56 am 01:56 Mostly Clear 37 2.8 29 -1.7 73 73 SE 7 11 29.98 1015 10 16 0.00 0.00
2:56 am 02:56 Partly Cloudy 40 4.4 29 -1.7 65 65 SSE 9 15 29.96 1015 10 16 0.00 0.00
3:56 am 03:56 Mostly Clear 41 5 30 -1.1 65 65 S 7 11 29.94 1014 10 16 0.00 0.00
4:56 am 04:56 Clear 42 5.6 31 -0.6 65 65 SSE 8 13 29.93 1014 10 16 0.00 0.00
5:56 am 05:56 Clear 44 6.7 32 0 63 63 SSE 12 19 29.92 1013 10 16 0.00 0.00
6:56 am 06:56 Cloudy 45 7.2 32 0 61 61 SSE 10 17 29.91 1013 10 16 0.00 0.00
7:56 am 07:56 Cloudy 45 7.2 32 0 61 61 SSE 9 15 29.92 1013 10 16 0.00 0.00
8:56 am 08:56 Cloudy 46 7.8 32 0 58 58 SSE 10 17 29.91 1013 10 16 0.00 0.00
9:56 am 09:56 Cloudy 48 8.9 32 0 54 54 SSE 8 13 29.89 1012 10 16 0.00 0.00
10:56 am 10:56 Cloudy 50 10 34 1.1 54 54 SSE 10 17 29.87 1012 10 16 0.00 0.00
11:56 am 11:56 Cloudy 54 12.2 36 2.2 51 51 S 13 20 29.82 1010 10 16 0.00 0.00
12:56 pm 12:56 Cloudy 56 13.3 38 3.3 51 51 S 14 22 29.78 1008 10 16 0.00 0.00
1:56 pm 13:56 Cloudy with Light Rain 51 10.6 42 5.6 71 71 S 9 15 29.76 1008 10 16 0.00 0.03
2:56 pm 14:56 Cloudy with Light Rain 52 11.1 42 5.6 69 69 SSE 12 19 29.73 1007 10 16 0.00 0.03
3:56 pm 15:56 Cloudy with Light Rain 50 10 44 6.7 80 80 SSE 12 19 29.71 1006 10 16 0.03 0.76
4:56 pm 16:56 Cloudy with Light Rain 49 9.4 44 6.7 83 83 SSE 14 22 29.69 1005 8 13 0.08 2.03
5:56 pm 17:56 Cloudy with Rain 47 8.3 43 6.1 86 86 SE 20 31 29.66 1004 9 14 0.09 2.29
6:56 pm 18:56 Cloudy with Rain 46 7.8 41 5 83 83 SE 22 35 29.64 1004 7 11 0.09 2.29
7:56 pm 19:56 Cloudy with Light Rain 46 7.8 42 5.6 86 86 SE 16 26 29.58 1002 8 13 0.11 2.79
8:56 pm 20:56 Cloudy with Light Rain 47 8.3 43 6.1 86 86 SE 22 35 29.53 1000 10 16 0.07 1.78
9:56 pm 21:56 Cloudy with Light Rain 47 8.3 42 5.6 83 83 SE 25 41 29.49 999 10 16 0.07 1.78
11:56 pm 23:56 Cloudy with Light Rain 48 8.9 45 7.2 89 89 SSE 25 41 29.47 998 10 16 0.01 0.25

Powered by AerisWeather